This is the latest recevied weather packets stored in our database for station/object K7ZQU-7. If no packets are shown the sender has not sent any weather packets the latest 10 day(s).
| Time | Temp. | Humidity | Pressure | Rain* | Wind** | Luminosity | Snow |
|---|---|---|---|---|---|---|---|
| 1777671353 | 18.89° C | 28% | 1015.7 hPa | 0 mm | 0.45 m/s, 204° | - | - |
| 1777671051 | 18.89° C | 27% | 1015.7 hPa | 0 mm | 0.45 m/s, 354° | - | - |
| 1777669855 | 19.44° C | 27% | 1015.8 hPa | 0 mm | 0 m/s | - | - |
| 1777669554 | 19.44° C | 26% | 1015.8 hPa | 0 mm | 0.89 m/s, 134° | - | - |
| 1777668956 | 18.89° C | 30% | 1015.9 hPa | 0 mm | 0 m/s | - | - |
| 1777668657 | 18.33° C | 29% | 1015.9 hPa | 0 mm | 0 m/s | - | - |
| 1777667757 | 18.33° C | 29% | 1016 hPa | 0 mm | 0 m/s | - | - |
| 1777667458 | 17.78° C | 32% | 1016 hPa | 0 mm | 0 m/s | - | - |
| 1777666863 | 17.78° C | 30% | 1016.2 hPa | 0 mm | 0 m/s | - | - |
| 1777666559 | 17.78° C | 31% | 1016.2 hPa | 0 mm | 0.45 m/s, 153° | - | - |
| 1777666260 | 17.78° C | 31% | 1016.2 hPa | 0 mm | 0.45 m/s, 207° | - | - |
| 1777665961 | 17.78° C | 33% | 1016.2 hPa | 0 mm | 0.45 m/s, 38° | - | - |
| 1777663564 | 17.78° C | 34% | 1016.3 hPa | 0 mm | 1.34 m/s, 125° | - | - |
| 1777663265 | 17.78° C | 34% | 1016.3 hPa | 0 mm | 0.89 m/s, 6° | - | - |
| 1777662966 | 17.78° C | 33% | 1016.4 hPa | 0 mm | 2.24 m/s, 195° | - | - |
| 1777662667 | 17.22° C | 35% | 1016.4 hPa | 0 mm | 0.89 m/s, 148° | - | - |
| 1777662368 | 17.22° C | 36% | 1016.5 hPa | 0 mm | 0.45 m/s, 7° | - | - |
| 1777661468 | 16.67° C | 37% | 1016.4 hPa | 0 mm | 0.89 m/s, 98° | - | - |
| 1777660568 | 16.11° C | 38% | 1016.6 hPa | 0 mm | 1.34 m/s, 122° | - | - |
| 1777659970 | 16.11° C | 40% | 1016.5 hPa | 0 mm | 1.34 m/s, 191° | - | - |
| 1777659372 | 15.56° C | 40% | 1016.4 hPa | 0 mm | 0.89 m/s, 87° | - | - |
| 1777658772 | 15° C | 39% | 1016.5 hPa | 0 mm | 1.79 m/s, 111° | - | - |
| 1777658473 | 15° C | 41% | 1016.4 hPa | 0 mm | 0.89 m/s, 195° | - | - |
| 1777658174 | 14.44° C | 41% | 1016.4 hPa | 0 mm | 0.89 m/s, 13° | - | - |
| 1777657875 | 14.44° C | 41% | 1016.4 hPa | 0 mm | 0.89 m/s, 122° | - | - |
* Rain latest hour (hover to see other rain measurements)
** Current wind speed in m/s (hover to see current wind gust speed)